Temperature
10 9 8 9 9 10 10 10 10 11 10 9 9 9 9 8 8 8 8 7 7 6 5 5 5 5 5 5 5 5 5 5 5 5 5 5 5 5 6 6 6 6 6 6
9 8 9 9 10 10 9 9 9 10 10 9 8 8 9 8 8 8 8 7 6 6 5 4 4 4 4 4 4 4 4 5 4 4 5 5 5 5 5 5 5 5 5 6
8 8 9 9 9 9 9 8 8 8 8 8 7 7 8 8 7 7 7 6 6 5 4 4 4 4 4 4 4 4 4 4 4 4 4 4 4 4 4 4 4 5 5 5
8 8 8 8 8 8 8 8 8 8 7 7 7 6 8 7 6 6 6 6 5 5 4 4 3 3 3 3 3 3 3 3 3 3 3 3 3 3 4 4 4 4 4 4
7 7 7 7 7 7 7 7 7 7 6 6 7 6 6 7 6 5 5 5 5 4 4 3 3 3 3 3 3 3 3 3 3 3 3 3 3 3 3 3 3 3 3 3
7 7 7 7 7 7 6 6 6 6 5 5 6 6 6 6 6 6 5 5 4 4 3 3 2 2 2 2 2 2 2 2 2 2 2 2 2 2 2 2 2 3 3 3
6 6 6 6 6 6 6 5 5 5 5 6 7 6 5 6 6 5 4 4 4 3 3 2 2 2 2 2 2 2 2 2 2 2 2 2 2 1 2 2 2 2 2 2
7 6 6 5 5 5 5 5 5 5 6 6 7 5 5 5 4 4 4 4 3 3 2 2 2 1 1 1 1 1 1 1 1 1 1 1 1 1 1 1 1 1 1 1
6 6 6 5 6 5 5 5 5 5 4 4 5 6 5 4 3 3 3 3 2 2 2 1 1 1 1 1 1 1 1 1 1 0 0 0 0 1 0 0 1 1 1 1
6 5 4 4 4 4 4 5 4 4 4 4 6 6 5 3 3 2 1 1 1 1 1 1 1 1 0 0 0 0 0 -0 -0 -0 -0 -0 -0 -0 -0 -0 -0 0 0 0
5 4 3 3 3 3 3 3 4 4 4 4 4 5 4 4 3 2 1 1 1 0 0 0 0 0 -0 -0 -0 -0 -0 -1 -1 -1 -1 -1 -1 -1 -1 -1 -1 -1 -1 -1
4 3 3 3 3 3 4 4 3 3 3 3 3 3 3 2 2 2 1 1 0 0 -0 -0 -1 -1 -1 -1 -1 -1 -1 -1 -1 -1 -2 -2 -2 -2 -2 -2 -2 -2 -1 -1
3 2 2 3 2 2 2 2 3 2 2 2 2 3 1 1 1 1 0 0 -0 -1 -1 -1 -1 -1 -2 -2 -2 -2 -2 -2 -2 -2 -2 -2 -2 -2 -2 -2 -2 -2 -2 -2
3 2 2 3 4 2 1 1 1 1 1 1 2 3 1 0 -0 -1 -1 -1 -1 -1 -2 -2 -2 -2 -2 -2 -2 -2 -3 -3 -3 -3 -3 -3 -3 -3 -3 -3 -3 -3 -3 -3
2 1 1 2 2 2 2 1 1 1 1 1 2 2 2 0 -1 -1 -1 -2 -2 -3 -3 -3 -3 -3 -3 -3 -3 -3 -3 -3 -4 -4 -4 -4 -4 -4 -4 -4 -4 -4 -4 -4
1 0 1 0 1 1 1 1 1 0 0 0 0 0 -0 -1 -1 -1 -2 -2 -3 -4 -4 -4 -4 -3 -3 -3 -3 -4 -4 -4 -4 -4 -4 -4 -4 -4 -4 -4 -5 -4 -4 -4
-0 -0 -0 0 0 0 -0 -0 -0 -0 -1 -1 -1 -1 -2 -3 -3 -3 -3 -3 -4 -4 -4 -4 -4 -4 -4 -4 -4 -4 -4 -5 -5 -5 -5 -5 -5 -5 -5 -5 -5 -5 -5 -5
-1 -1 -0 -0 -0 -1 0 -0 -1 -1 -2 -2 -2 -3 -3 -3 -3 -3 -3 -4 -4 -4 -4 -5 -5 -5 -5 -5 -5 -5 -5 -6 -6 -6 -6 -6 -6 -6 -6 -6 -6 -6 -6 -6
-1 -1 -1 -0 -0 0 -0 -1 -2 -2 -3 -3 -3 -4 -4 -4 -4 -4 -4 -4 -4 -4 -5 -5 -5 -5 -6 -6 -6 -6 -6 -6 -7 -7 -7 -7 -7 -6 -7 -7 -7 -7 -7 -7
-2 -2 -1 -1 -0 -0 -0 -3 -3 -3 -3 -4 -5 -5 -5 -5 -5 -5 -4 -5 -5 -5 -5 -6 -6 -6 -7 -7 -7 -7 -7 -7 -7 -7 -7 -7 -7 -7 -7 -7 -7 -8 -8 -8
-3 -3 -2 -1 -1 -2 -4 -5 -4 -2 -3 -4 -4 -5 -5 -6 -6 -5 -6 -6 -6 -6 -6 -7 -7 -7 -7 -7 -7 -7 -7 -8 -8 -8 -8 -8 -8 -8 -8 -8 -8 -8 -9 -9
-3 -3 -3 -2 -2 -2 -6 -5 -5 -5 -5 -5 -5 -5 -6 -6 -6 -7 -7 -7 -7 -7 -7 -8 -8 -8 -8 -8 -8 -8 -8 -9 -9 -9 -9 -9 -9 -9 -9 -9 -9 -9 -9 -10
-3 -3 -3 -3 -3 -5 -6 -6 -6 -6 -6 -6 -6 -6 -6 -7 -8 -8 -8 -8 -8 -8 -8 -8 -9 -9 -9 -9 -9 -9 -9 -9 -9 -9 -10 -10 -10 -10 -10 -10 -10 -10 -10 -10
-5 -5 -5 -5 -6 -6 -6 -6 -6 -6 -7 -7 -7 -7 -7 -8 -8 -9 -9 -9 -9 -9 -9 -9 -9 -9 -10 -10 -10 -10 -10 -10 -10 -10 -10 -11 -11 -11 -11 -11 -11 -11 -11 -11
-6 -6 -6 -6 -7 -7 -7 -7 -7 -7 -7 -7 -8 -8 -8 -8 -9 -9 -9 -10 -10 -10 -10 -10 -10 -10 -10 -11 -11 -11 -11 -11 -11 -11 -11 -11 -12 -12 -12 -12 -12 -12 -12 -12
-8 -8 -7 -6 -8 -8 -8 -7 -8 -8 -8 -8 -9 -9 -9 -9 -10 -10 -10 -10 -10 -10 -11 -11 -11 -11 -11 -11 -12 -12 -12 -12 -12 -12 -12 -12 -12 -12 -12 -12 -12 -12 -13 -13
Wind_Speed
4 3 4 5 7 7 7 7 9 6 1 4 9 12 9 7 8 8 8 8 8 7 6 5 5 4 4 4 3 4 3 3 2 1 1 1 1 1 2 3 4 5 4 4
3 6 6 5 5 7 8 9 9 6 2 5 8 12 11 9 9 7 7 7 6 5 5 6 5 4 4 4 3 3 3 3 3 1 1 1 1 1 2 2 4 4 4 4
6 2 3 5 6 6 8 8 7 7 6 6 7 9 9 5 6 6 5 5 6 6 6 6 5 4 4 4 4 3 3 3 3 2 2 1 1 1 1 1 1 3 3 3
4 3 3 4 5 5 6 3 6 6 6 5 4 6 5 4 5 6 6 6 6 5 5 5 5 4 4 3 3 4 4 3 3 3 3 2 2 2 1 1 1 2 2 2
3 1 2 4 3 4 3 3 5 6 6 7 6 6 7 4 6 7 7 6 5 6 6 5 5 4 3 3 3 3 3 3 2 3 3 3 2 1 1 2 2 2 2 2
4 2 2 2 2 3 2 3 5 4 3 6 8 7 6 4 5 4 5 6 6 6 6 5 4 4 3 3 3 3 3 2 2 2 2 2 2 2 3 2 2 2 2 1
5 5 3 2 2 2 2 1 2 2 5 7 4 6 6 1 1 2 4 5 5 6 5 5 5 4 4 4 3 2 3 2 2 2 2 2 2 2 3 3 3 2 2 1
4 4 5 4 3 3 5 4 3 4 4 4 3 6 4 3 3 3 3 4 4 4 4 4 4 4 3 3 3 3 3 2 2 2 2 2 2 1 1 2 2 3 2 2
3 2 2 2 1 2 3 5 3 3 5 6 6 4 3 4 3 3 3 3 3 4 3 4 3 3 3 3 3 3 3 3 3 3 2 2 2 1 1 1 1 1 2 2
3 3 2 1 1 3 3 2 1 4 4 6 7 7 4 4 5 5 4 3 3 3 3 3 3 2 3 3 3 3 3 3 2 2 2 2 2 2 1 1 1 1 2 2
2 3 2 3 6 6 5 4 4 4 4 4 5 5 0 2 3 4 4 3 3 2 3 2 2 2 2 2 2 3 2 2 2 2 1 1 1 1 1 1 1 1 2 2
2 2 4 5 1 1 4 6 6 5 6 5 5 7 1 3 2 3 2 2 2 2 2 2 1 1 1 2 2 2 2 2 2 2 1 1 1 1 1 1 1 2 2 2
3 3 3 2 1 1 3 5 5 4 3 6 7 7 1 2 2 1 1 1 1 1 1 1 1 1 2 1 2 2 2 2 1 1 1 1 2 2 2 2 1 2 2 2
2 5 7 8 4 2 4 6 7 7 6 8 11 11 7 3 2 2 2 2 2 2 2 2 2 2 2 2 2 2 2 1 1 1 1 2 2 2 2 2 2 2 2 2
3 6 7 10 10 7 9 10 10 13 12 11 11 12 11 6 5 4 3 2 2 2 2 2 3 2 1 1 1 1 2 1 2 2 2 2 2 2 2 2 2 2 2 2
3 5 4 8 9 9 12 13 13 14 12 14 14 15 9 4 3 2 3 3 3 3 3 3 3 2 2 2 1 1 2 1 1 2 2 2 2 2 2 2 2 2 2 2
5 4 3 6 3 6 10 11 12 9 8 8 13 13 4 3 3 3 3 3 4 4 3 3 3 2 2 2 2 2 1 1 1 2 2 2 2 2 2 2 2 2 2 2
5 5 4 4 3 9 7 1 5 8 8 8 7 5 3 3 3 2 2 2 3 3 2 2 2 1 1 1 1 1 0 1 1 1 1 1 2 2 2 2 2 2 2 2
5 6 4 4 6 9 5 2 2 5 6 4 6 5 4 3 3 3 2 1 2 2 1 1 1 1 1 1 1 1 0 0 1 1 1 2 2 2 2 2 2 2 2 3
2 4 5 5 6 7 4 1 0 2 5 2 2 4 3 1 3 4 1 1 2 2 1 1 1 1 1 1 1 1 0 1 1 2 2 2 2 2 3 3 3 2 3 3
3 4 8 9 8 7 2 1 2 3 5 2 1 3 3 3 4 2 2 2 2 2 2 2 2 1 1 1 1 1 1 1 2 2 2 2 2 2 2 2 2 2 2 2
7 6 6 6 7 8 1 3 4 4 2 2 2 2 2 2 0 1 1 1 2 2 2 2 2 1 1 1 1 0 1 2 2 2 3 3 2 2 2 1 1 2 2 2
6 6 4 6 6 1 4 3 1 1 2 2 2 2 1 1 1 0 0 1 1 1 1 1 1 1 2 1 1 0 1 1 2 2 2 2 2 2 2 1 1 1 2 2
3 2 3 4 5 3 2 1 2 2 2 3 2 2 1 1 2 1 0 0 1 1 1 1 1 1 1 2 1 1 1 1 1 1 2 2 2 2 2 2 2 2 2 2
3 2 3 5 3 3 2 2 2 2 2 2 2 1 0 1 1 1 0 0 0 1 1 1 1 1 1 2 2 2 1 1 1 1 2 2 2 2 2 2 2 3 2 3
2 3 4 5 3 3 3 3 2 1 1 2 2 2 1 0 1 0 0 1 1 1 1 1 1 1 1 2 2 2 1 1 1 2 2 2 2 2 2 2 3 5 5 7
Wind_Direction
180 220 227 234 231 257 287 285 280 283 194 228 246 260 256 222 217 219 206 196 195 192 174 162 157 155 148 140 143 147 139 134 127 134 154 151 135 100 78 64 71 68 64 66
209 236 248 266 268 257 267 275 280 287 250 257 264 267 261 235 219 215 207 197 197 190 174 171 165 161 163 164 165 159 150 148 148 152 170 164 144 134 107 77 75 73 69 70
232 258 270 251 261 264 256 258 272 284 297 262 278 280 250 237 207 203 209 200 193 192 188 181 175 173 168 169 175 171 163 159 160 142 124 102 107 113 101 110 100 67 68 72
251 262 272 262 256 263 268 288 281 281 285 266 233 280 256 217 201 201 204 206 193 184 179 179 176 170 172 175 169 168 162 163 164 150 154 158 174 182 189 176 150 96 84 79
240 253 260 256 260 264 280 333 288 272 267 277 241 251 266 218 224 215 200 196 185 173 173 176 174 169 167 160 158 162 155 159 167 168 177 187 181 189 161 152 152 146 123 109
249 254 269 276 270 248 299 292 267 250 252 258 225 217 268 229 222 199 181 186 183 169 168 165 157 146 146 146 150 157 166 171 168 173 183 187 188 189 170 169 180 177 167 151
240 213 196 238 240 207 233 259 286 239 223 241 199 212 246 202 107 149 169 175 171 164 162 159 156 158 154 153 155 159 167 179 175 176 183 196 198 193 187 183 190 191 191 202
261 244 183 195 212 215 220 214 220 248 259 282 225 229 236 130 96 88 100 133 146 146 154 156 158 164 166 166 163 163 173 182 181 181 189 195 199 197 203 202 189 194 200 201
271 253 121 167 233 225 210 221 244 278 285 277 253 237 228 162 152 159 151 144 149 148 145 148 149 159 170 174 177 182 177 180 185 188 186 190 189 180 206 229 218 196 187 198
301 278 208 145 215 247 253 279 204 214 249 261 264 245 235 203 209 196 183 181 175 155 149 148 158 172 173 172 172 170 169 185 192 191 195 195 188 185 197 200 235 226 195 200
264 250 228 206 210 207 196 217 221 232 239 245 268 259 4 164 172 182 192 188 187 190 192 171 171 175 163 155 162 166 175 178 189 202 205 192 196 195 183 202 229 246 224 198
203 252 254 232 203 265 216 215 201 218 241 231 255 265 31 68 106 142 170 181 190 193 192 177 169 158 152 165 175 180 182 185 200 203 202 197 199 196 188 208 233 249 249 225
168 204 266 261 252 231 239 232 230 241 262 240 240 256 85 53 26 32 122 153 179 180 181 187 173 188 201 206 201 199 195 200 201 200 201 204 204 202 209 221 238 245 254 245
207 224 223 241 263 212 238 237 226 221 234 246 243 258 270 265 262 263 241 208 211 204 199 209 208 213 212 209 200 200 202 198 191 201 211 223 223 218 220 227 235 244 254 251
207 243 246 261 272 262 249 242 222 224 230 239 255 258 270 253 245 245 236 224 217 224 233 232 229 220 213 209 211 207 208 200 194 204 219 236 239 230 224 227 237 243 256 262
214 247 263 264 256 257 261 250 237 235 240 246 259 267 274 285 285 268 239 227 236 246 243 240 221 209 211 217 222 229 224 213 204 217 231 245 247 243 231 231 241 247 255 260
207 211 235 262 270 295 263 242 226 227 227 222 242 254 281 284 267 251 246 239 236 246 252 241 223 214 219 224 214 223 225 209 216 237 246 254 256 259 254 250 248 254 250 250
207 213 233 266 285 250 247 192 195 219 242 231 244 274 287 273 267 266 274 250 259 251 248 251 224 210 213 220 204 173 148 197 226 247 270 285 280 276 270 251 251 259 259 247
218 208 229 238 252 264 266 219 178 210 262 246 243 272 301 315 317 294 314 293 266 257 210 204 218 196 157 166 144 117 75 303 255 271 295 303 297 287 279 270 265 258 257 257
229 214 224 231 244 251 252 145 19 125 266 286 229 255 275 320 279 267 314 27 35 55 92 108 93 89 113 126 114 108 21 335 307 307 304 299 292 276 274 269 266 255 255 259
181 209 220 233 244 256 257 216 134 187 257 321 263 254 249 236 241 270 49 57 59 62 68 92 96 78 42 61 90 72 349 316 318 325 324 310 298 283 276 269 258 250 262 265
188 196 207 213 231 249 156 134 185 232 326 345 326 308 274 254 234 68 61 61 70 65 58 67 78 46 19 45 92 46 318 330 342 337 327 320 319 310 303 285 261 246 245 255
203 202 202 206 221 230 151 174 221 331 306 315 322 321 277 245 207 236 65 80 96 86 67 55 71 36 13 30 76 55 326 348 347 338 330 327 327 320 312 288 262 251 236 245
215 227 226 246 250 252 221 237 311 315 298 312 307 295 268 224 220 239 237 71 97 73 61 60 54 25 355 11 21 1 340 2 3 338 326 323 324 320 317 307 292 274 256 254
229 195 228 247 270 306 272 285 295 322 342 349 351 354 239 206 247 246 278 330 97 46 39 46 27 348 337 355 353 350 0 11 353 325 314 314 316 314 314 306 286 278 259 256
203 200 213 238 233 239 264 300 321 326 325 327 343 350 354 258 237 294 343 9 41 19 19 14 5 349 340 348 343 345 355 5 336 310 308 306 307 309 310 311 311 301 292 290
Height
1481 1484 1484 1482 1482 1481 1479 1479 1479 1476 1476 1479 1479 1476 1474 1474 1475 1476 1477 1479 1482 1483 1486 1487 1488 1489 1490 1491 1493 1494 1496 1497 1498 1499 1500 1502 1503 1505 1506 1507 1508 1510 1510 1512
1482 1483 1481 1480 1479 1480 1480 1481 1479 1476 1476 1478 1477 1474 1469 1469 1470 1471 1473 1475 1478 1480 1482 1483 1485 1486 1487 1488 1490 1491 1493 1494 1495 1496 1497 1499 1500 1502 1503 1504 1505 1507 1508 1509
1480 1481 1479 1479 1480 1480 1479 1481 1481 1480 1478 1477 1479 1474 1466 1464 1465 1468 1470 1471 1474 1476 1478 1480 1482 1483 1484 1485 1487 1488 1490 1491 1492 1493 1495 1496 1497 1499 1500 1501 1502 1503 1505 1506
1479 1479 1479 1479 1480 1480 1480 1479 1479 1480 1484 1481 1478 1480 1463 1461 1463 1465 1467 1469 1470 1473 1475 1477 1478 1480 1481 1483 1484 1486 1486 1488 1489 1490 1491 1492 1493 1494 1495 1497 1498 1500 1501 1502
1479 1478 1479 1480 1480 1480 1480 1480 1480 1481 1482 1483 1477 1481 1467 1461 1461 1461 1463 1465 1467 1470 1472 1474 1475 1477 1478 1480 1481 1482 1484 1485 1486 1487 1488 1489 1490 1491 1492 1494 1495 1496 1497 1499
1478 1478 1479 1479 1479 1480 1480 1481 1481 1481 1484 1485 1472 1477 1467 1461 1456 1457 1459 1462 1464 1467 1470 1471 1473 1474 1475 1477 1478 1479 1481 1482 1483 1484 1485 1486 1486 1487 1488 1489 1490 1492 1493 1495
1477 1477 1478 1479 1480 1480 1482 1485 1486 1483 1485 1475 1463 1468 1464 1457 1455 1455 1457 1459 1462 1464 1467 1469 1470 1471 1472 1474 1475 1476 1477 1478 1479 1481 1481 1482 1483 1483 1484 1485 1486 1488 1489 1490
1476 1476 1476 1477 1478 1480 1480 1481 1486 1484 1476 1466 1462 1466 1459 1456 1455 1456 1457 1458 1460 1463 1465 1466 1467 1469 1470 1471 1472 1473 1474 1475 1476 1477 1478 1479 1480 1480 1480 1481 1482 1484 1485 1486
1476 1475 1474 1475 1476 1478 1478 1480 1478 1483 1479 1479 1465 1457 1456 1455 1456 1457 1458 1458 1460 1461 1463 1464 1465 1466 1467 1468 1469 1470 1471 1472 1473 1474 1475 1475 1476 1476 1477 1478 1479 1480 1481 1482
1476 1479 1476 1476 1478 1478 1478 1478 1482 1484 1482 1476 1461 1454 1455 1455 1455 1456 1457 1458 1459 1460 1461 1462 1463 1464 1464 1465 1466 1466 1467 1468 1469 1470 1470 1471 1472 1472 1473 1474 1474 1476 1477 1478
1477 1480 1479 1478 1478 1476 1479 1480 1479 1478 1476 1476 1471 1459 1451 1450 1451 1453 1455 1456 1457 1458 1459 1459 1460 1461 1462 1462 1462 1463 1463 1464 1465 1466 1466 1467 1468 1469 1469 1470 1471 1472 1473 1474
1476 1478 1478 1474 1472 1472 1472 1473 1476 1480 1476 1473 1471 1463 1452 1451 1450 1452 1454 1455 1456 1457 1457 1458 1458 1458 1458 1458 1459 1459 1460 1460 1461 1462 1463 1464 1465 1465 1465 1466 1467 1468 1468 1469
1476 1479 1479 1473 1476 1477 1475 1472 1473 1475 1475 1473 1471 1461 1453 1452 1452 1452 1453 1453 1454 1455 1455 1455 1455 1455 1455 1455 1455 1456 1456 1456 1457 1458 1459 1460 1461 1461 1462 1462 1463 1463 1464 1465
1473 1475 1476 1470 1464 1470 1473 1472 1471 1474 1474 1469 1460 1453 1453 1452 1452 1452 1452 1452 1452 1452 1452 1452 1452 1452 1452 1452 1452 1452 1452 1453 1453 1454 1455 1455 1456 1457 1457 1458 1459 1459 1459 1460
1472 1473 1470 1466 1464 1464 1465 1465 1466 1467 1464 1463 1453 1451 1447 1449 1450 1449 1450 1449 1450 1449 1449 1449 1448 1448 1448 1449 1449 1449 1449 1449 1449 1450 1450 1451 1452 1453 1453 1454 1454 1455 1455 1455
1470 1471 1469 1467 1462 1462 1460 1457 1458 1459 1459 1456 1453 1450 1445 1446 1447 1447 1447 1447 1447 1446 1446 1445 1445 1445 1445 1445 1445 1445 1445 1445 1446 1446 1446 1447 1447 1448 1449 1449 1450 1450 1450 1451
1468 1470 1470 1464 1461 1461 1457 1450 1451 1451 1450 1451 1450 1445 1444 1445 1444 1444 1444 1444 1444 1443 1443 1442 1442 1441 1441 1441 1441 1441 1441 1442 1442 1442 1442 1443 1443 1444 1444 1444 1445 1445 1446 1446
1466 1467 1467 1464 1464 1463 1445 1442 1442 1445 1445 1445 1444 1443 1442 1442 1442 1441 1441 1441 1441 1440 1439 1439 1438 1438 1438 1438 1438 1438 1438 1438 1438 1438 1438 1439 1439 1439 1439 1440 1440 1440 1441 1441
1460 1463 1463 1462 1458 1447 1443 1442 1443 1445 1443 1441 1441 1441 1441 1440 1440 1439 1438 1438 1438 1437 1437 1437 1436 1435 1435 1435 1435 1435 1435 1435 1434 1434 1434 1434 1435 1434 1435 1435 1435 1435 1436 1436
1459 1460 1462 1459 1455 1446 1440 1443 1441 1443 1443 1439 1438 1439 1439 1438 1441 1437 1435 1435 1435 1434 1434 1434 1433 1432 1432 1432 1432 1431 1431 1431 1431 1430 1430 1431 1431 1431 1430 1430 1431 1431 1431 1432
1461 1460 1459 1455 1450 1444 1443 1441 1441 1445 1439 1438 1436 1436 1436 1436 1436 1435 1433 1432 1432 1432 1431 1431 1430 1430 1429 1429 1429 1429 1429 1428 1428 1427 1427 1427 1427 1427 1426 1426 1426 1427 1427 1427
1453 1455 1454 1452 1448 1443 1442 1442 1443 1440 1437 1436 1435 1434 1433 1433 1432 1431 1431 1430 1430 1429 1429 1429 1428 1428 1427 1427 1427 1426 1426 1426 1425 1424 1424 1424 1423 1423 1423 1422 1422 1423 1423 1423
1446 1446 1444 1444 1442 1439 1438 1437 1437 1437 1436 1435 1434 1433 1432 1431 1430 1429 1429 1428 1428 1427 1427 1427 1426 1426 1425 1425 1425 1424 1424 1423 1422 1422 1421 1420 1420 1420 1419 1419 1419 1419 1419 1419
1443 1442 1442 1441 1437 1436 1436 1436 1435 1435 1434 1433 1432 1431 1430 1428 1428 1427 1427 1426 1425 1425 1425 1425 1424 1423 1423 1423 1422 1422 1421 1421 1420 1419 1418 1418 1417 1417 1416 1416 1416 1416 1416 1415
1440 1441 1439 1439 1436 1435 1434 1433 1433 1432 1431 1430 1429 1428 1427 1426 1426 1425 1424 1424 1424 1424 1423 1423 1422 1421 1421 1420 1420 1419 1419 1418 1417 1417 1416 1416 1415 1414 1414 1413 1413 1413 1413 1413
1438 1439 1439 1434 1433 1433 1431 1431 1430 1429 1428 1428 1427 1426 1425 1425 1423 1423 1423 1423 1423 1422 1422 1421 1420 1420 1419 1418 1418 1417 1416 1416 1415 1414 1414 1413 1412 1412 1411 1410 1410 1410 1410 1410